Location: Banff
(51.1667°N, 115.5667°W)
Time: 22:38:12
(UTC+00:00)

deb Explorer IX - All Passes

Search period start: 05 December 2020 00:00
Search period end: 15 December 2020 00:00
Orbit: 537 x 1105 km, 38.8° (Epoch: 04 December)

Date Brightness Start Highest point End Pass type
(mag) Time Alt. Az. Time Alt. Az. Time Alt. Az.
05 Dec - 00:46:21 10° WSW 00:51:14 23° S 00:55:37 10° SE visible
05 Dec - 02:34:37 10° SW 02:36:55 12° SSW 02:39:05 10° S visible
05 Dec - 20:51:46 10° S 20:55:41 16° SSE 20:59:26 10° ESE daylight
05 Dec - 22:36:18 10° SW 22:41:45 25° S 22:46:42 10° ESE daylight
06 Dec - 00:22:47 10° WSW 00:27:52 24° S 00:32:25 10° SE visible
06 Dec - 02:10:57 10° SW 02:13:34 13° SSW 02:16:03 10° S visible
06 Dec - 20:28:10 10° S 20:32:15 16° SSE 20:36:11 10° ESE daylight
06 Dec - 22:12:43 10° SW 22:18:19 26° S 22:23:26 10° ESE daylight
06 Dec - 23:59:12 10° WSW 00:04:29 25° S 00:09:13 10° SE daylight
07 Dec - 01:47:17 10° WSW 01:50:13 14° SSW 01:52:58 10° S visible
07 Dec - 20:04:34 10° S 20:08:48 16° SSE 20:12:52 10° ESE daylight
07 Dec - 21:49:09 10° SW 21:54:53 26° S 22:00:10 10° ESE daylight
07 Dec - 23:35:37 10° WSW 23:41:04 26° S 23:45:59 10° SE daylight
08 Dec - 01:23:38 10° WSW 01:26:50 14° SSW 01:29:51 10° S visible
08 Dec - 19:41:00 10° S 19:45:20 17° SSE 19:49:32 10° ESE daylight
08 Dec - 21:25:35 10° SW 21:31:25 27° S 21:36:52 10° ESE daylight
08 Dec - 23:12:02 10° WSW 23:17:38 26° S 23:22:44 10° SE daylight
09 Dec - 00:59:58 10° WSW 01:03:27 15° SSW 01:06:42 10° S visible
09 Dec - 19:17:28 10° S 19:21:51 17° SSE 19:26:10 10° ESE daylight
09 Dec - 21:02:02 10° SW 21:07:56 27° S 21:13:32 10° ESE daylight
09 Dec - 22:48:26 10° WSW 22:54:11 27° S 22:59:27 10° SE daylight
10 Dec - 00:36:20 10° WSW 00:40:03 16° SSW 00:43:31 10° S visible
10 Dec - 18:53:56 10° S 18:58:22 17° SSE 19:02:46 10° ESE daylight
10 Dec - 20:38:28 10° SW 20:44:28 28° S 20:50:10 10° ESE daylight
10 Dec - 22:24:53 10° WSW 22:30:44 28° S 22:36:09 10° SE daylight
11 Dec - 00:12:42 10° WSW 00:16:37 16° SSW 00:20:18 10° S visible
11 Dec - 18:30:26 10° S 18:34:53 17° SSE 18:39:20 10° ESE daylight
11 Dec - 20:14:57 10° SW 20:20:58 28° S 20:26:47 10° ESE daylight
11 Dec - 22:01:18 10° WSW 22:07:15 28° S 22:12:49 10° SE daylight
11 Dec - 23:49:05 10° WSW 23:53:11 17° SSW 23:57:03 10° S daylight
12 Dec - 18:06:57 10° S 18:11:23 17° SSE 18:15:52 10° ESE daylight
12 Dec - 19:51:26 10° SW 19:57:28 28° S 20:03:23 10° ESE daylight
12 Dec - 21:37:45 10° WSW 21:43:46 28° S 21:49:27 10° SE daylight
12 Dec - 23:25:28 10° WSW 23:29:44 17° SSW 23:33:46 10° S daylight
13 Dec - 17:43:31 10° S 17:47:54 17° SSE 17:52:22 10° ESE daylight
13 Dec - 19:27:56 10° SW 19:33:57 29° S 19:39:55 10° ESE daylight
13 Dec - 21:14:12 10° WSW 21:20:16 29° S 21:26:05 10° SE daylight
13 Dec - 23:01:51 10° WSW 23:06:16 17° SSW 23:10:27 10° S daylight
14 Dec - 17:20:05 10° S 17:24:24 17° SSE 17:28:50 10° ESE daylight
14 Dec - 19:04:27 10° SW 19:10:27 29° S 19:16:28 10° ESE daylight
14 Dec - 20:50:41 10° WSW 20:56:45 29° S 21:02:40 10° SE daylight
14 Dec - 22:38:16 10° WSW 22:42:47 18° SSW 22:47:07 10° SSE daylight
